Regional Weather Roundup
Issued by NWS

Home | Current Version | Previous Version | Text Only | Print | Product List | Glossary Off
Versions: 1 2 3 4 5 6 7 8 9 10 11 12 13 14 15 16 17 18 19 20 21 22 23 24 25 26 27 28 29 30 31 32 33 34 35 36 37 38 39 40 41 42 43 44 45 46 47 48 49 50

703
ASUS43 KMPX 140710
RWRMN
WEATHER ROUNDUP FOR MINNESOTA
NATIONAL WEATHER SERVICE TWIN CITIES/CHANHASSEN MN
100 AM CST SUN FEB 14 2016


NOTE: "FAIR" INDICATES FEW OR NO CLOUDS BELOW 12,000 FEET WITH NO
SIGNIFICANT WEATHER AND/OR OBSTRUCTIONS TO VISIBILITY. N/A MEANS
CURRENT SKY AND/OR WEATHER CONDITIONS ARE NOT AVAILABLE.

MNZ060>063-068>070-140800-
   Twin Cities Metro

CITY           SKY/WX    TMP DP  RH WIND       PRES   REMARKS
TWIN CITIES    CLOUDY     8  -5  55 SE7       30.27F WCI  -3
ST PAUL        CLOUDY     9  -4  55 SE12      30.30F WCI  -6
CRYSTAL        CLOUDY    10  -5  50 SE8       30.25F WCI  -2
BLAINE         CLOUDY    10  -4  52 SE6       30.26F WCI   1
LAKEVILLE      CLOUDY     9   0  66 SE6       30.25F WCI  -1
EDEN PRAIRIE   CLOUDY    11  -4  51 SE9       30.24F WCI  -2
SOUTH ST PAUL  CLOUDY     9  -5  53 SE5       30.28F WCI   0
LAKE ELMO      CLOUDY    10  -6  48 SE8       30.28F WCI  -1
$$
MNZ001>005-007-008-013>017-022>024-027-028-140800-
   Northwest Minnesota

CITY           SKY/WX    TMP DP  RH WIND       PRES   REMARKS
BEMIDJI        CLOUDY     6  -6  58 SE12      30.10F WCI -10
HALLOCK        CLOUDY    12   3  67 S23       30.01F WCI  -7
ROSEAU         CLOUDY    10  -2  56 SE13      30.06F WCI  -5
WARROAD        CLOUDY     7  -6  56 SE10      30.09F WCI  -8
THIEF RVR FALL CLOUDY    10  -2  56 SE13      30.06S WCI  -5
CROOKSTON      LGT SNOW  12   5  73 S16       30.06F WCI  -4
FOSSTON        CLOUDY     9  -4  56 SE15      30.05F WCI  -8
DETROIT LAKES  CLOUDY    12   3  67 S18       30.05F WCI  -5
MOORHEAD       CLOUDY    12   3  67 S22G29    30.06S WCI  -7
PARK RAPIDS    CLOUDY     9  -4  55 SE13      30.09F WCI  -7
MAHNOMEN       CLOUDY    10   1  67 S10G16    30.05F WCI  -3
$$
MNZ006-009>011-018-025>026-140800-
   North Central Minnesota

CITY           SKY/WX    TMP DP  RH WIND       PRES   REMARKS
BAUDETTE       MOCLDY    -2 -15  54 SE12      30.11F WCI -20
FLAG ISLAND    CLOUDY     3  -8  60 S20       30.10F WCI -18
INTL FALLS     CLOUDY   -12 -19  71 SE6       30.17F WCI -26
WASKISH        CLOUDY     5  -8  56 SE9       30.12F WCI  -9
LONGVILLE      CLOUDY     3  -9  55 SE7       30.16F WCI  -9
GRAND RAPIDS   CLOUDY    -2 -15  55 SE9       30.18F WCI -18
CRANE LAKE     CLOUDY   -20 -26  76 CALM      30.24F
ORR            CLOUDY    -4 -17  54 CALM      30.16F
COOK           CLOUDY   -18 -24  76 CALM      30.20F
WALKER         CLOUDY     5  -8  56 SE7       30.12F WCI  -7
$$
MNZ012-019>021-037-140800-
   Northeast Minnesota

CITY           SKY/WX    TMP DP  RH WIND       PRES   REMARKS
DULUTH         CLOUDY    -2 -15  54 S8        30.23F WCI -17
ELY            CLOUDY   -20 -26  76 E3        30.22F
HIBBING        CLOUDY    -9 -17  68 SE5       30.22S WCI -20
EVELETH        CLOUDY   -18 -26  69 NE5       30.23F WCI -31
DULUTH HARBOR  CLOUDY     1  -9  60 CALM      30.34F
TWO HARBORS    CLOUDY   -11 -18  70 CALM      30.26F
SILVER BAY     CLOUDY   -17 -24  70 CALM      30.27F
GRAND MARAIS     N/A     16   6  65 S10       30.33F WCI   4
G MARAIS ARPRT LGT SNOW   3  -2  78 S5        30.21S WCI  -6
$$
MNZ029>031-032-039>041-046>048-054>057-064-140800-
   West Central Minnesota

CITY           SKY/WX    TMP DP  RH WIND       PRES   REMARKS
FERGUS FALLS   CLOUDY    10   3  72 S21       30.11F WCI  -9
WHEATON        FLURRIES  12   9  85 SE22G30   30.07F WCI  -7
MORRIS         LGT SNOW  10   7  85 SE23      30.08F WCI -10
ALEXANDRIA     CLOUDY     9   0  67 SE17G23   30.09F WCI  -9
ELBOW LAKE     CLOUDY    10   4  76 SE21G26   30.08F WCI  -9
WADENA         CLOUDY     9  -2  61 SE14      30.10F WCI  -8
GLENWOOD       CLOUDY     9   1  72 SE16      30.12F WCI  -9
APPLETON       LGT SNOW  12   9  85 SE15      30.11F WCI  -4
BENSON         FLURRIES  10   5  79 S14G25    30.11F WCI  -5
ORTONVILLE     LGT SNOW  10   7  85 SE16      30.07F WCI  -7
MADISON        LGT SNOW  12   9  85 SE20G26   30.09F WCI  -6
WILLMAR        CLOUDY    10   5  79 SE16G24   30.16F WCI  -7
$$
MNZ033>034-036-042>043-049>051-058-059-140800-
   Central Minnesota

CITY           SKY/WX    TMP DP  RH WIND       PRES   REMARKS
ST CLOUD       CLOUDY     9  -5  53 SE15      30.20F WCI  -8
SAUK CENTRE    CLOUDY     9  -1  64 S16       30.15F WCI  -8
PAYNESVILLE    CLOUDY    10  -1  62 SE10      30.17F WCI  -4
AITKIN         CLOUDY     7 -11  43 SE8       30.19S WCI  -6
PINE RIVER     CLOUDY     5  -6  61 SE8       30.18F WCI  -8
BRAINERD       CLOUDY     7  -7  52 SE8       30.18F WCI  -6
STAPLES        CLOUDY     9  -6  52 SE12      30.13F WCI  -6
LONG PRAIRIE   CLOUDY     9   0  66 SE14      30.14F WCI  -8
LITTLE FALLS   CLOUDY    10  -6  48 SE14      30.18F WCI  -5
LITCHFIELD     CLOUDY    10   0  61 SE8       30.19F WCI  -1
BUFFALO        CLOUDY    10  -6  49 SE7       30.23F WCI  -1
MAPLE LAKE     CLOUDY    10  -2  58 SE8       30.22F WCI  -1
$$
MNZ037-044-045-052-053-140800-
   East Central Minnesota

CITY           SKY/WX    TMP DP  RH WIND       PRES   REMARKS
PRINCETON      CLOUDY    10  -4  52 SE10      30.23F WCI  -3
MORA           CLOUDY     5  -8  56 E8        30.26F WCI  -8
CAMBRIDGE      CLOUDY    10  -4  52 CALM      30.23F
RUSH CITY      CLOUDY     3  -9  58 E5        30.27F WCI  -7
MOOSE LAKE     PTCLDY   -11 -17  77 CALM      30.25F
HINCKLEY       FAIR       0 -11  60 E3        30.27F
CLOQUET        CLEAR     -2 -17  50 SE3       30.24F
MCGREGOR       CLOUDY     1  -9  60 SE9       30.22F WCI -14
$$
MNZ071>073-080-081-089-090-097-098-140800-
   Southwest Minnesota

CITY           SKY/WX    TMP DP  RH WIND       PRES   REMARKS
MONTEVIDEO     LGT SNOW  10   7  85 S16       30.13F WCI  -7
GRANITE FALLS  LGT SNOW  13   9  85 SE16      30.16F WCI  -3
CANBY          LGT SNOW  16  12  84 SE16G22   30.07F WCI   0
MARSHALL       FLURRIES  12   7  80 SE20      30.10F WCI  -6
REDWOOD FALLS  LGT SNOW  11   5  77 SE17      30.17F WCI  -6
OLIVIA         FLURRIES  12   5  73 SE15G21   30.16F WCI  -4
PIPESTONE      LGT SNOW  12   3  67 S15G24    30.02F VSB 1   WCI  -4
WINDOM         FLURRIES  10   9  92 SE18G24   30.12F WCI  -8
WORTHINGTON    CLOUDY    10   5  79 SE18G26   30.08F WCI  -8
JACKSON        LGT SNOW  12   9  85 SE18      30.14F WCI  -5
TRACY          CLOUDY    13   9  83 S13       30.11F WCI  -2
SLAYTON        LGT SNOW  10   9  94 SE21G26   30.07F WCI  -9
$$
MNZ065>067-074>077-082>085-091>093-140800-
   South Central Minnesota

CITY           SKY/WX    TMP DP  RH WIND       PRES   REMARKS
MANKATO        CLOUDY    10   1  67 S14G20    30.22F WCI  -5
NEW ULM        FLURRIES  10   1  67 SE13      30.19F WCI  -5
ST JAMES       FLURRIES  12   9  85 SE15      30.19F WCI  -4
FAIRMONT       CLOUDY    10   5  79 SE17      30.17S WCI  -7
GLENCOE        CLOUDY    11   2  66 SE12      30.21F WCI  -3
FARIBAULT      CLOUDY    10   0  61 SE7       30.24F WCI   0
OWATONNA       CLOUDY    10   0  61 SE14      30.22F WCI  -5
WASECA         CLOUDY    12   3  67 SE13G18   30.23F WCI  -3
ALBERT LEA     LGT SNOW  10   1  67 SE17      30.21F WCI  -7
$$
MNZ078>079-086>088-094>096-140800-
   Southeast Minnesota

CITY           SKY/WX    TMP DP  RH WIND       PRES   REMARKS
ROCHESTER      CLOUDY     8  -3  61 S15       30.24F WCI  -9
RED WING       CLOUDY     9  -8  47 SE8       30.30F WCI  -4
STANTON        CLOUDY    11  -4  51 SE7       30.26F WCI   1
DODGE CENTER   CLOUDY     9   0  66 SE12      30.23F WCI  -6
WINONA         CLOUDY     9  -4  56 SE3       30.36F
AUSTIN         CLOUDY     9   1  72 SE10      30.23F WCI  -6
PRESTON        CLOUDY     7  -6  56 SE13      30.27F WCI -10
$$
ABBREVIATIONS USED IN REMARKS
   TC - TEMPERATURES IN CELSIUS
  WCI - WIND CHILL INDEX
   HX - HEAT INDEX
  VSB - VISIBILITY
$$




USA.gov is the U.S. government's official web portal to all federal, state and local government web resources and services.